N2WPO Weather Reports


time (UTC)temp
F
wind
direction
speed
knots
gust
knots
rain 1hr
in
rain 24hr
in
rain mn
in
humidity
%
barometer
mb
20260505063620 48 248 0.0 0.0 0.00 0.00 0.00 88 1007.0
20260505063120 48 180 0.0 0.0 0.00 0.00 0.00 88 1007.0
20260505062620 48 203 0.0 0.0 0.00 0.00 0.00 87 1007.0
20260505062120 49 203 0.0 0.0 0.00 0.00 0.00 87 1007.0
20260505061620 49 270 0.0 0.9 0.00 0.00 0.00 87 1007.0
20260505061120 49 225 0.0 0.0 0.00 0.00 0.00 87 1007.0
20260505060621 49 203 0.9 2.6 0.00 0.00 0.00 86 1007.0
20260505060120 49 180 0.0 0.0 0.00 0.00 0.00 86 1007.0
20260505055621 49 203 0.0 0.0 0.00 0.00 0.00 86 1007.0
20260505055120 49 270 0.0 0.0 0.00 0.00 0.00 85 1007.0
20260505054621 49 315 0.9 1.7 0.00 0.00 0.00 85 1007.0
20260505054120 49 45 0.0 0.9 0.00 0.00 0.00 85 1007.0
20260505053620 49 45 0.0 0.0 0.00 0.00 0.00 84 1007.0
20260505053120 50 90 0.9 1.7 0.00 0.00 0.00 84 1007.0
20260505052620 49 113 3.5 5.2 0.00 0.00 0.00 84 1007.0
20260505052119 50 248 0.0 0.0 0.00 0.00 0.00 83 1007.0
20260505051620 50 203 0.0 0.9 0.00 0.00 0.00 83 1007.0
20260505051120 50 293 0.0 0.0 0.00 0.00 0.00 82 1006.0
20260505050621 50 248 0.0 0.0 0.00 0.00 0.00 82 1007.0
20260505050121 50 338 0.0 0.0 0.00 0.00 0.00 81 1007.0
20260505041620 50 270 0.0 0.0 0.00 0.00 0.00 79 1007.0
20260505041122 51 270 0.0 0.0 0.00 0.00 0.00 78 1007.0
20260505040620 51 113 0.9 0.9 0.00 0.00 0.00 78 1007.0
20260505040120 51 45 0.0 0.9 0.00 0.00 0.00 78 1007.0
20260505035620 51 270 0.0 0.0 0.00 0.00 0.00 77 1007.0
20260505035120 51 248 2.6 3.5 0.00 0.00 0.00 77 1007.0
20260505034620 51 270 0.0 0.0 0.00 0.00 0.00 77 1007.0
20260505034121 51 315 0.0 0.0 0.00 0.00 0.00 76 1007.0
20260505033620 51 338 0.0 0.0 0.00 0.00 0.00 76 1007.0
20260505033121 51 270 0.0 0.0 0.00 0.00 0.00 76 1007.0
20260505032620 52 113 1.7 2.6 0.00 0.00 0.00 75 1007.0
20260505032120 52 23 0.9 1.7 0.00 0.00 0.00 75 1007.0
20260505031620 52 0 0.0 0.9 0.00 0.00 0.00 74 1007.0
20260505031120 52 270 2.6 2.6 0.00 0.00 0.00 74 1007.0
20260505030620 52 68 0.0 0.0 0.00 0.00 0.00 73 1007.0
20260505030120 52 270 0.0 0.0 0.00 0.00 0.00 73 1007.0
20260505025620 52 203 1.7 2.6 0.00 0.00 0.00 73 1007.0
20260505025120 52 293 0.0 0.9 0.00 0.00 0.00 72 1007.0
20260505024621 52 68 1.7 2.6 0.00 0.00 0.00 72 1007.0
20260505024120 52 135 0.0 0.0 0.00 0.00 0.00 71 1007.0
20260505023620 53 248 0.0 0.0 0.00 0.00 0.00 71 1007.0
20260505023120 53 225 0.0 0.9 0.00 0.00 0.00 70 1007.0
20260505022620 53 135 0.0 0.0 0.00 0.00 0.00 69 1007.0
20260505022121 53 293 0.0 0.9 0.00 0.00 0.00 68 1007.0
20260505021620 53 315 1.7 2.6 0.00 0.00 0.00 68 1007.0
20260505021120 53 248 0.0 0.9 0.00 0.00 0.00 68 1007.0
20260505020621 53 293 0.9 1.7 0.00 0.00 0.00 67 1007.0
20260505020120 54 248 0.0 0.9 0.00 0.00 0.00 66 1007.0
20260505015620 54 293 0.0 0.9 0.00 0.00 0.00 65 1007.0
20260505015120 54 0 0.0 0.9 0.00 0.00 0.00 64 1007.0
20260505014621 54 90 0.0 0.0 0.00 0.00 0.00 63 1007.0
20260505014121 55 68 0.0 0.0 0.00 0.00 0.00 63 1007.0
20260505013620 55 203 0.9 2.6 0.00 0.00 0.00 62 1007.0
20260505013120 55 180 0.0 0.9 0.00 0.00 0.00 62 1007.0
20260505012621 55 113 1.7 2.6 0.00 0.00 0.00 60 1007.0
20260505012121 55 180 1.7 2.6 0.00 0.00 0.00 60 1006.0
20260505011620 55 225 0.9 2.6 0.00 0.00 0.00 59 1007.0
20260505011121 55 293 0.0 0.0 0.00 0.00 0.00 59 1006.0
20260505010620 55 135 0.0 0.0 0.00 0.00 0.00 58 1006.0
20260505010120 56 180 0.9 2.6 0.00 0.00 0.00 57 1006.0
20260505005620 56 203 2.6 3.5 0.00 0.00 0.00 57 1006.0
20260505005120 56 90 0.0 0.9 0.00 0.00 0.00 57 1006.0
20260505004620 56 270 0.9 2.6 0.00 0.00 0.00 56 1006.0
20260505004120 56 225 0.9 1.7 0.00 0.00 0.00 57 1006.0
20260505003620 56 90 0.9 1.7 0.00 0.00 0.00 55 1006.0
20260505003120 57 270 0.9 1.7 0.00 0.00 0.00 55 1005.0
20260505002622 57 90 2.6 4.3 0.00 0.00 0.00 54 1005.0
20260505002120 57 68 0.0 0.9 0.00 0.00 0.00 53 1005.0
20260505001643 58 248 0.0 0.9 0.00 0.00 0.00 53 1005.0
20260505001120 57 90 1.7 2.6 0.00 0.00 0.00 53 1005.0
20260505000620 57 23 0.9 1.7 0.00 0.00 0.00 54 1005.0
20260505000121 58 225 0.0 0.0 0.00 0.00 0.00 53 1005.0
20260504235620 58 270 5.2 6.1 0.00 0.00 0.00 52 1005.0
20260504235120 58 113 0.0 1.7 0.00 0.00 0.00 53 1005.0
20260504234621 58 68 0.9 1.7 0.00 0.00 0.00 51 1005.0
20260504234120 59 45 0.9 1.7 0.00 0.00 0.00 51 1005.0
20260504233620 59 68 1.7 2.6 0.00 0.00 0.00 50 1005.0
20260504233121 60 135 0.0 1.7 0.00 0.00 0.00 49 1005.0
20260504232620 60 0 1.7 2.6 0.00 0.00 0.00 48 1004.0
20260504232121 61 270 1.7 4.3 0.00 0.00 0.00 47 1004.0
20260504231620 61 113 2.6 2.6 0.00 0.00 0.00 46 1004.0
20260504231120 62 315 0.0 0.9 0.00 0.00 0.00 46 1004.0
20260504230629 62 315 1.7 5.2 0.00 0.00 0.00 45 1004.0
20260504230120 63 0 2.6 3.5 0.00 0.00 0.00 44 1004.0
20260504225620 63 270 0.0 0.9 0.00 0.00 0.00 43 1004.0
20260504225120 63 270 0.0 0.9 0.00 0.00 0.00 43 1004.0
20260504224620 64 248 2.6 4.3 0.00 0.00 0.00 43 1004.0
20260504224120 64 113 3.5 3.5 0.00 0.00 0.00 42 1004.0
20260504223621 64 113 2.6 4.3 0.00 0.00 0.00 42 1004.0
20260504223120 65 248 1.7 2.6 0.00 0.00 0.00 41 1004.0
20260504222620 65 90 4.3 5.2 0.00 0.00 0.00 41 1003.0
20260504222120 66 90 0.9 1.7 0.00 0.00 0.00 40 1003.0
20260504221620 66 68 4.3 6.1 0.00 0.00 0.00 41 1004.0
20260504221120 66 203 2.6 3.5 0.00 0.00 0.00 40 1003.0
20260504220620 66 293 2.6 4.3 0.00 0.00 0.00 37 1003.0
20260504220120 66 158 0.0 0.9 0.00 0.00 0.00 39 1003.0
20260504215622 66 0 2.6 2.6 0.00 0.00 0.00 39 1004.0
20260504215120 67 270 5.2 6.1 0.00 0.00 0.00 38 1003.0
20260504214621 67 203 1.7 2.6 0.00 0.00 0.00 37 1003.0
20260504214120 67 225 3.5 4.3 0.00 0.00 0.00 36 1004.0
20260504213620 68 315 1.7 2.6 0.00 0.00 0.00 36 1004.0
20260504213121 68 293 1.7 2.6 0.00 0.00 0.00 36 1003.0
20260504212620 68 135 3.5 5.2 0.00 0.00 0.00 36 1003.0
20260504212120 69 270 1.7 4.3 0.00 0.00 0.00 34 1003.0
20260504211620 68 225 1.7 2.6 0.00 0.00 0.00 36 1003.0
20260504211121 69 180 2.6 2.6 0.00 0.00 0.00 35 1003.0
20260504210620 69 203 2.6 6.1 0.00 0.00 0.00 34 1003.0
20260504210120 70 180 3.5 4.3 0.00 0.00 0.00 33 1003.0
20260504205620 70 68 1.7 2.6 0.00 0.00 0.00 32 1003.0
20260504205121 70 158 0.9 2.6 0.00 0.00 0.00 31 1003.0
20260504204620 70 68 2.6 3.5 0.00 0.00 0.00 31 1003.0
20260504204122 70 113 3.5 4.3 0.00 0.00 0.00 32 1003.0
20260504203622 70 113 5.2 6.1 0.00 0.00 0.00 30 1003.0
20260504203120 71 45 4.3 6.1 0.00 0.00 0.00 29 1003.0
20260504202621 71 45 0.9 2.6 0.00 0.00 0.00 30 1003.0
20260504202120 71 158 0.9 1.7 0.00 0.00 0.00 29 1003.0
20260504201620 72 203 1.7 3.5 0.00 0.00 0.00 30 1003.0
20260504201120 72 68 3.5 5.2 0.00 0.00 0.00 27 1003.0
20260504200620 72 113 1.7 2.6 0.00 0.00 0.00 28 1003.0
20260504200120 71 248 2.6 5.2 0.00 0.00 0.00 28 1003.0
20260504195620 72 225 3.5 6.1 0.00 0.00 0.00 28 1003.0
20260504195121 73 158 2.6 3.5 0.00 0.00 0.00 27 1003.0
20260504194620 73 293 4.3 6.1 0.00 0.00 0.00 26 1003.0
20260504194120 73 293 5.2 7.8 0.00 0.00 0.00 29 1003.0
20260504193621 73 293 2.6 2.6 0.00 0.00 0.00 29 1003.0
20260504193120 73 180 0.9 1.7 0.00 0.00 0.00 28 1003.0
20260504192620 72 23 0.0 0.9 0.00 0.00 0.00 27 1003.0
20260504192120 73 203 4.3 6.1 0.00 0.00 0.00 29 1003.0
20260504191621 72 45 2.6 4.3 0.00 0.00 0.00 30 1003.0
20260504191121 72 225 6.1 13.9 0.00 0.00 0.00 26 1003.0
20260504190620 73 68 2.6 3.5 0.00 0.00 0.00 30 1003.0
20260504190120 73 203 2.6 3.5 0.00 0.00 0.00 28 1003.0
20260504185622 72 293 2.6 4.3 0.00 0.00 0.00 28 1003.0
20260504185121 73 90 2.6 5.2 0.00 0.00 0.00 27 1003.0
20260504184621 72 180 1.7 3.5 0.00 0.00 0.00 29 1003.0
20260504184120 73 180 6.1 7.8 0.00 0.00 0.00 30 1004.0
20260504183620 73 158 1.7 2.6 0.00 0.00 0.00 29 1004.0
20260504183120 72 248 2.6 4.3 0.00 0.00 0.00 30 1004.0
20260504182623 71 90 2.6 2.6 0.00 0.00 0.00 29 1004.0
20260504182120 71 270 3.5 5.2 0.00 0.00 0.00 31 1004.0
20260504181620 72 68 0.9 1.7 0.00 0.00 0.00 28 1004.0
20260504181120 72 225 2.6 3.5 0.00 0.00 0.00 28 1004.0
20260504180620 72 180 6.1 6.1 0.00 0.00 0.00 29 1004.0
20260504180120 71 135 4.3 6.1 0.00 0.00 0.00 29 1004.0
20260504175620 72 113 0.9 3.5 0.00 0.00 0.00 30 1004.0
20260504175121 71 315 2.6 2.6 0.00 0.00 0.00 28 1004.0
20260504174621 71 90 1.7 2.6 0.00 0.00 0.00 30 1004.0
20260504174120 71 180 4.3 6.1 0.00 0.00 0.00 29 1004.0
20260504173620 70 158 2.6 3.5 0.00 0.00 0.00 30 1004.0
20260504173123 70 135 1.7 2.6 0.00 0.00 0.00 31 1023.0
20260504172621 70 90 3.5 4.3 0.00 0.00 0.00 27 1023.0
20260504172120 70 68 4.3 7.0 0.00 0.00 0.00 31 1023.0
20260504171620 70 135 1.7 2.6 0.00 0.00 0.00 31 1023.0
20260504171122 70 135 7.0 8.7 0.00 0.00 0.00 28 1023.0
20260504170620 69 113 1.7 2.6 0.00 0.00 0.00 28 1023.0
20260504170120 69 113 2.6 2.6 0.00 0.00 0.00 29 1023.0
20260504160120 67 248 2.6 2.6 0.00 0.00 0.00 31 1024.0
20260504151120 66 180 4.3 6.1 0.00 0.00 0.00 35 1025.0
20260504150620 66 270 4.3 6.1 0.00 0.00 0.00 34 1025.0
20260504150120 67 158 5.2 6.1 0.00 0.00 0.00 33 1025.0
20260504141120 65 68 1.7 2.6 0.00 0.00 0.00 34 1025.0
20260504140620 64 113 3.5 4.3 0.00 0.00 0.00 36 1025.0
20260504140121 64 90 2.6 5.2 0.00 0.00 0.00 37 1025.0
20260504130620 59 45 2.6 3.5 0.00 0.00 0.00 41 1026.0
20260504130121 58 113 4.3 5.2 0.00 0.00 0.00 42 1026.0
20260504120120 54 113 0.9 2.6 0.00 0.00 0.00 45 1026.0
20260504110620 44 270 0.0 0.0 0.00 0.00 0.00 63 1026.0
20260504110120 44 338 0.0 0.0 0.00 0.00 0.00 63 1026.0
20260504100121 43 270 0.0 0.0 0.00 0.00 0.00 63 1026.0
20260504090120 43 315 0.0 0.0 0.00 0.00 0.00 63 1026.0
20260504081620 44 315 0.0 0.0 0.00 0.00 0.00 63 1026.0
20260504081120 44 225 0.0 0.0 0.00 0.00 0.00 59 1026.0
20260504080620 43 270 0.0 0.0 0.00 0.00 0.00 62 1026.0
20260504080120 44 270 0.0 0.0 0.00 0.00 0.00 63 1026.0
20260504070120 43 315 0.0 0.0 0.00 0.00 0.00 63 1026.0